LRBS Weather Reports


time (UTC)temp
F
wind
direction
speed
knots
gust
knots
rain 1hr
in
rain 24hr
in
rain mn
in
humidity
%
barometer
mb
20260904101823 81 260 7.0 0.0 0.00 0.00 0.00 48 1017.0
20260904100320 81 260 7.0 0.0 0.00 0.00 0.00 48 1017.0
20260904094815 79 250 7.8 0.0 0.00 0.00 0.00 51 1017.0
20260904093314 79 250 7.8 0.0 0.00 0.00 0.00 51 1017.0
20260904091814 77 250 7.0 0.0 0.00 0.00 0.00 54 1018.0
20260904090314 77 250 7.0 0.0 0.00 0.00 0.00 54 1018.0
20260904084815 75 250 6.1 0.0 0.00 0.00 0.00 54 1017.0
20260904083314 75 250 6.1 0.0 0.00 0.00 0.00 54 1017.0
20260904081817 73 260 7.8 0.0 0.00 0.00 0.00 61 1018.0
20260904080315 73 260 7.8 0.0 0.00 0.00 0.00 61 1018.0
20260904074929 73 290 5.2 0.0 0.00 0.00 0.00 61 1018.0
20260904073315 73 290 5.2 0.0 0.00 0.00 0.00 61 1018.0
20260904071813 72 280 6.1 0.0 0.00 0.00 0.00 69 1017.0
20260904070315 72 280 6.1 0.0 0.00 0.00 0.00 69 1017.0
20260904064814 70 270 6.1 0.0 0.00 0.00 0.00 73 1017.0
20260904063314 70 270 6.1 0.0 0.00 0.00 0.00 73 1017.0
20260904061815 66 300 4.3 0.0 0.00 0.00 0.00 88 1017.0
20260904060314 66 300 4.3 0.0 0.00 0.00 0.00 88 1017.0
20260904054815 66 240 5.2 0.0 0.00 0.00 0.00 83 1017.0
20260904053315 66 240 5.2 0.0 0.00 0.00 0.00 83 1017.0
20260904051814 64 270 4.3 0.0 0.00 0.00 0.00 94 1017.0
20260904050314 64 270 4.3 0.0 0.00 0.00 0.00 94 1017.0
20260904044814 64 270 1.7 0.0 0.00 0.00 0.00 94 1017.0
20260904043314 64 270 1.7 0.0 0.00 0.00 0.00 94 1017.0
20260904041814 64 260 4.3 0.0 0.00 0.00 0.00 88 1017.0
20260904040314 64 260 4.3 0.0 0.00 0.00 0.00 88 1017.0
20260904034814 64 260 4.3 0.0 0.00 0.00 0.00 88 1017.0
20260904033314 64 260 4.3 0.0 0.00 0.00 0.00 88 1017.0
20260904031815 64 0.9 0.0 0.00 0.00 0.00 88 1017.0
20260904030314 64 0.9 0.0 0.00 0.00 0.00 88 1017.0
20260904024815 64 260 2.6 0.0 0.00 0.00 0.00 88 1016.0
20260904023315 64 260 2.6 0.0 0.00 0.00 0.00 88 1016.0
20260904021814 64 270 4.3 0.0 0.00 0.00 0.00 88 1016.0
20260904020315 64 270 4.3 0.0 0.00 0.00 0.00 88 1016.0
20260904014848 64 320 4.3 0.0 0.00 0.00 0.00 88 1016.0
20260904013314 64 320 4.3 0.0 0.00 0.00 0.00 88 1016.0
20260904011814 64 1.7 0.0 0.00 0.00 0.00 88 1016.0
20260904010314 64 1.7 0.0 0.00 0.00 0.00 88 1016.0
20260904004815 66 120 2.6 0.0 0.00 0.00 0.00 78 1016.0
20260904003315 66 120 2.6 0.0 0.00 0.00 0.00 78 1016.0
20260904001814 64 120 6.1 0.0 0.00 0.00 0.00 94 1016.0
20260904000315 64 120 6.1 0.0 0.00 0.00 0.00 94 1016.0
20260903234814 64 130 8.7 0.0 0.00 0.00 0.00 94 1017.0
20260903233314 64 130 8.7 0.0 0.00 0.00 0.00 94 1017.0
20260903224812 70 1.7 0.0 0.00 0.00 0.00 64 1017.0
20260903223314 70 1.7 0.0 0.00 0.00 0.00 64 1017.0
20260903221814 72 360 4.3 0.0 0.00 0.00 0.00 61 1017.0
20260903220314 72 360 4.3 0.0 0.00 0.00 0.00 61 1017.0
20260903214814 72 350 4.3 0.0 0.00 0.00 0.00 61 1016.0
20260903213323 72 350 4.3 0.0 0.00 0.00 0.00 61 1016.0
20260903211818 70 320 6.1 0.0 0.00 0.00 0.00 64 1017.0
20260903210315 70 320 6.1 0.0 0.00 0.00 0.00 64 1017.0
20260903204925 72 0 0.0 0.0 0.00 0.00 0.00 65 1016.0
20260903203315 72 0 0.0 0.0 0.00 0.00 0.00 65 1016.0
20260903201814 72 1.7 0.0 0.00 0.00 0.00 61 1016.0
20260903200314 72 1.7 0.0 0.00 0.00 0.00 61 1016.0
20260903194815 72 0 0.0 0.0 0.00 0.00 0.00 57 1016.0
20260903193316 72 0 0.0 0.0 0.00 0.00 0.00 57 1016.0
20260903191814 73 40 1.7 0.0 0.00 0.00 0.00 57 1016.0
20260903190315 73 40 1.7 0.0 0.00 0.00 0.00 57 1016.0
20260903184814 73 50 2.6 0.0 0.00 0.00 0.00 57 1016.0
20260903183316 73 50 2.6 0.0 0.00 0.00 0.00 57 1016.0
20260903181814 73 50 4.3 0.0 0.00 0.00 0.00 57 1016.0
20260903180314 73 50 4.3 0.0 0.00 0.00 0.00 57 1016.0
20260903174814 75 60 4.3 0.0 0.00 0.00 0.00 54 1016.0
20260903173315 75 60 4.3 0.0 0.00 0.00 0.00 54 1016.0
20260903171815 77 40 4.3 0.0 0.00 0.00 0.00 47 1015.0
20260903170315 77 40 4.3 0.0 0.00 0.00 0.00 47 1015.0
20260903164814 81 70 4.3 0.0 0.00 0.00 0.00 42 1015.0
20260903163314 81 70 4.3 0.0 0.00 0.00 0.00 42 1015.0
20260903161814 84 120 5.2 0.0 0.00 0.00 0.00 37 1015.0
20260903160315 84 120 5.2 0.0 0.00 0.00 0.00 37 1015.0
20260903154815 84 60 2.6 0.0 0.00 0.00 0.00 37 1015.0
20260903153315 84 60 2.6 0.0 0.00 0.00 0.00 37 1015.0
20260903151815 86 80 6.1 0.0 0.00 0.00 0.00 35 1015.0
20260903150315 86 80 6.1 0.0 0.00 0.00 0.00 35 1015.0
20260903144814 86 4.3 0.0 0.00 0.00 0.00 35 1015.0
20260903143315 86 4.3 0.0 0.00 0.00 0.00 35 1015.0
20260903141815 86 70 4.3 0.0 0.00 0.00 0.00 35 1016.0
20260903140314 86 70 4.3 0.0 0.00 0.00 0.00 35 1016.0
20260903134814 86 60 6.1 0.0 0.00 0.00 0.00 38 1016.0
20260903133314 86 60 6.1 0.0 0.00 0.00 0.00 38 1016.0
20260903131814 86 2.6 0.0 0.00 0.00 0.00 38 1016.0
20260903130315 86 2.6 0.0 0.00 0.00 0.00 38 1016.0
20260903124814 84 50 6.1 0.0 0.00 0.00 0.00 43 1016.0
20260903123325 84 50 6.1 0.0 0.00 0.00 0.00 43 1016.0
20260903121814 86 70 6.1 0.0 0.00 0.00 0.00 40 1016.0
20260903120315 86 70 6.1 0.0 0.00 0.00 0.00 40 1016.0
20260903114815 84 50 7.0 0.0 0.00 0.00 0.00 40 1017.0
20260903113314 84 50 7.0 0.0 0.00 0.00 0.00 40 1017.0
20260903111815 82 50 7.0 0.0 0.00 0.00 0.00 45 1017.0
20260903110314 82 50 7.0 0.0 0.00 0.00 0.00 45 1017.0
20260903104814 82 60 8.7 0.0 0.00 0.00 0.00 48 1017.0
20260903103314 82 60 8.7 0.0 0.00 0.00 0.00 48 1017.0